[[{"header":{"parameterUnit":"m.s-1","parameterCategory":1,"la1":30.2991,"la2":30.254,"lo1":-89.0895,"lo2":-89.0444,"dy":0.0017,"dx":0.0017,"nx":28,"ny":28,"refTime":"2024-03-11T03:00:00:Z","depth":0,"parameterNumber":2,"parameterNumberName":"U-component_of_WINDS"},"data":[0,0,0,0,0,0,0,0,0,0,0,0,0,0,0,0,0,0,0,0,0,0,0,0,0,0,0,0,0,0,0,0,0,0,0,0,0,0,0,0,0,0,0,0,0,0,0,0,0,0,0,0,0,0,0,0,0,0,-2.2633,-2.2633,0,-2.2618,-2.2618,-2.2617,-2.2498,-2.2495,-2.2492,-2.2489,-2.248,-2.2482,-2.2485,0,0,0,0,0,0,0,0,0,0,0,0,0,-2.2566,-2.2568,-2.2633,-2.2633,-2.2632,-2.2618,-2.2618,-2.2617,-2.2498,-2.2495,-2.2491,-2.2488,-2.2479,-2.2482,-2.2485,0,0,0,0,0,0,0,0,0,0,0,0,0,-2.2578,-2.2568,-2.2633,-2.2571,-2.2565,-2.2618,-2.2618,-2.2617,-2.2499,-2.2495,-2.249,-2.2486,-2.2478,-2.2482,-2.2485,-2.2598,0,0,-2.2497,-2.2499,0,0,0,0,0,0,0,0,-2.2577,-2.258,-2.258,-2.2575,-2.2569,-2.2555,-2.259,-2.2611,-2.25,-2.2525,-2.2489,-2.2484,-2.2509,-2.251,-2.2517,-2.2597,-2.2597,-2.2497,-2.25,-2.2501,-2.2502,0,0,0,0,0,0,0,-2.2576,-2.258,-2.2627,-2.2581,-2.2574,-2.2547,-2.2543,-2.2594,-2.2542,-2.2522,-2.2513,-2.2513,-2.2505,-2.2514,-2.2516,-2.2597,-2.2497,-2.2501,-2.2503,-2.2504,-2.2771,-2.2776,0,0,0,0,0,0,-2.2583,-2.258,-2.2627,-2.2627,-2.2562,-2.2551,-2.2548,-2.2564,-2.2541,-2.2533,-2.2517,-2.2507,-2.2509,-2.2512,-2.2515,-2.2646,-2.2501,-2.2505,-2.2507,-2.2766,-2.2772,-2.2777,0,0,0,0,0,0,-2.2582,-2.2588,-2.2628,-2.2601,-2.2604,-2.2557,-2.2577,-2.2566,-2.2574,-2.2537,-2.2528,-2.2534,-2.2506,-2.251,-2.2578,-2.2644,-2.2507,-2.251,-2.2761,-2.2768,-2.2775,-2.2908,0,0,0,0,0,0,-2.2581,-2.2589,-2.2629,-2.2603,-2.2606,-2.269,-2.2581,-2.2569,-2.2581,-2.2568,-2.2551,-2.2544,-2.2503,-2.2573,-2.2582,-2.2647,-2.2513,-2.2755,-2.2764,-2.2773,-2.2898,-2.2919,-2.2938,0,0,0,0,0,-2.2579,-2.2668,-2.2632,-2.2638,-2.2655,-2.2693,-2.2695,-2.2644,-2.2586,-2.2628,-2.2604,-2.2545,-2.2636,-2.2581,-2.259,-2.2657,-2.275,-2.2761,-2.2772,-2.2889,-2.2915,-2.2937,0,0,0,0,0,0,-2.2705,-2.2664,-2.2623,-2.2706,-2.2704,-2.2673,-2.2723,-2.2673,-2.2689,-2.2677,-2.2615,-2.2612,-2.2691,-2.2681,-2.2621,-2.2766,-2.2683,-2.2696,-2.2769,-2.2793,-2.2813,-2.2814,-2.2516,0,0,0,0,0,-2.2743,-2.2775,-2.2738,-2.2815,-2.2816,-2.2771,-2.2786,-2.2746,-2.2743,-2.2742,-2.2723,-2.2723,-2.2752,-2.2772,-2.2796,-2.2896,-2.2892,-2.2947,-2.2967,-2.2983,-2.2996,-2.3049,-2.3074,-2.2813,-2.2813,-2.2813,0,0,-2.2821,-2.2802,-2.2827,-2.284,-2.2834,-2.2872,-2.2771,-2.2814,-2.2842,-2.2749,-2.2811,-2.2799,-2.2795,-2.288,-2.2917,-2.2875,-2.3067,-2.2997,-2.3011,-2.3014,-2.3063,-2.3088,-2.311,-2.282,-2.2819,-2.2818,0,0,-2.2982,-2.297,-2.3033,-2.303,-2.3021,-2.299,-2.3006,-2.2983,-2.297,-2.3032,-2.2964,-2.2998,-2.3048,-2.3048,-2.3056,-2.322,-2.3167,-2.323,-2.3334,-2.3387,-2.3407,-2.3425,-2.3485,-2.3507,-2.3242,-2.3243,-2.3243,0,-2.308,-2.3131,-2.3073,-2.3121,-2.313,-2.3047,-2.3112,-2.3112,-2.3113,-2.3122,-2.3074,-2.3137,-2.3129,-2.3213,-2.3254,-2.3262,-2.328,-2.3231,-2.3409,-2.3426,-2.3442,-2.3498,-2.3521,-2.325,-2.3249,-2.3249,-2.3248,0,-2.3253,-2.329,-2.3343,-2.3344,-2.336,-2.3417,-2.337,-2.3393,-2.3353,-2.3329,-2.3394,-2.3382,-2.3403,-2.342,-2.3382,-2.3501,-2.3475,-2.3419,-2.3335,-2.3476,-2.3528,-2.3549,-2.3261,-2.3259,-2.3256,-2.3254,0,0,-2.3492,-2.3461,-2.3481,-2.3482,-2.3467,-2.3496,-2.3551,-2.357,-2.3591,-2.3596,-2.3641,-2.3687,-2.3636,-2.3644,-2.3606,-2.3653,-2.3785,-2.3591,-2.359,-2.3628,-2.3917,-2.3959,-2.3985,-2.375,-2.3754,-2.3757,-2.3917,0,-2.3646,-2.3735,-2.3685,-2.3782,-2.3817,-2.3739,-2.3787,-2.3785,-2.3764,-2.3793,-2.3771,-2.3804,-2.3733,-2.3738,-2.3781,-2.376,-2.3843,-2.3748,-2.3794,-2.3796,-2.3797,-2.4011,-2.4055,-2.4207,-2.3937,-2.3941,-2.3943,0,-2.3838,-2.3849,-2.3949,-2.3929,-2.3942,-2.3986,-2.4,-2.4028,-2.4025,-2.4007,-2.4018,-2.3969,-2.4024,-2.3941,-2.4017,-2.3954,-2.397,-2.3964,-2.3968,-2.397,-2.3878,-2.402,-2.4254,-2.4277,-2.3974,-2.3972,-2.3969,0,-2.4003,-2.4043,-2.4108,-2.4111,-2.409,-2.4123,-2.4116,-2.4108,-2.4124,-2.4138,-2.4147,-2.4168,-2.418,-2.4199,-2.4158,-2.4101,-2.4241,-2.4154,-2.4229,-2.423,-2.4261,-2.426,-2.4501,-2.4272,-2.4272,-2.4271,-2.4271,0,-2.418,-2.4245,-2.4182,-2.4222,-2.4293,-2.4237,-2.4309,-2.4295,-2.429,-2.4327,-2.4263,-2.43,-2.4244,-2.4277,-2.4247,-2.4315,-2.4321,-2.431,-2.4301,-2.4315,-2.4317,-2.4325,-2.4313,-2.4277,-2.4276,-2.4275,-2.4274,0,-2.4376,-2.4336,-2.4402,-2.4377,-2.4372,-2.4426,-2.4405,-2.4443,-2.4418,-2.4467,-2.4476,-2.4438,-2.4474,-2.4435,-2.4469,-2.4448,-2.4541,-2.4517,-2.4541,-2.4534,-2.4612,-2.4605,-2.4867,-2.4899,-2.4649,-2.4652,-2.4654,0,-2.4491,-2.4539,-2.4519,-2.4538,-2.4535,-2.4568,-2.4583,-2.4532,-2.455,-2.4553,-2.4591,-2.462,-2.4641,-2.4703,-2.468,-2.4706,-2.4682,-2.4772,-2.4685,-2.4699,-2.4684,-2.4681,-2.4687,-2.4789,-2.4792,-2.4795,-2.4797,0,-2.4701,-2.468,-2.4702,-2.472,-2.4739,-2.4751,-2.4758,-2.4778,-2.4725,-2.475,-2.4785,-2.4801,-2.4835,-2.4866,-2.4886,-2.4881,-2.4832,-2.4824,-2.4843,-2.4859,-2.4871,-2.4866,-2.4589,-2.4818,-2.4816,-2.4815,-2.4813,-2.4813,-2.486,-2.4899,-2.4892,-2.492,-2.492,-2.4928,-2.4963,-2.4943,-2.497,-2.4992,-2.4961,-2.5005,-2.5004,-2.5024,-2.5027,-2.5062,-2.5024,-2.5051,-2.5058,-2.5065,-2.5077,-2.4866,-2.5065,-2.5065,-2.5064,-2.5063,-2.5063,0,-2.5067,-2.5059,-2.5086,-2.5097,-2.512,-2.507,-2.5075,-2.5099,-2.5137,-2.514,-2.5162,-2.5203,-2.5234,-2.5215,-2.5241,-2.5274,-2.5252,-2.5283,-2.528,-2.528,-2.5109,-2.509,-2.53,-2.53,-2.53,-2.53,-2.53,-2.53,-2.5178,-2.5241,-2.522,-2.5284,-2.5275,-2.5316,-2.5324,-2.5333,-2.5334,-2.5383,-2.5407,-2.5394,-2.5389,-2.5415,-2.5442,-2.5435,-2.5449,-2.5488,-2.5474,-2.5315,-2.5292,-2.5269,-2.5251,-2.5491,-2.5492,-2.5641,-2.5643,-2.5644]},{"header":{"parameterUnit":"m.s-1","parameterCategory":1,"la1":30.2991,"la2":30.254,"lo1":-89.0895,"lo2":-89.0444,"dy":0.0017,"dx":0.0017,"nx":28,"ny":28,"refTime":"2024-03-11T03:00:00:Z","depth":0,"parameterNumber":3,"parameterNumberName":"V-component_of_WINDS"},"data":[0,0,0,0,0,0,0,0,0,0,0,0,0,0,0,0,0,0,0,0,0,0,0,0,0,0,0,0,0,0,0,0,0,0,0,0,0,0,0,0,0,0,0,0,0,0,0,0,0,0,0,0,0,0,0,0,0,0,1.6171,1.6171,0,1.6144,1.6144,1.6144,1.6163,1.6164,1.6165,1.6165,1.6132,1.613,1.6128,0,0,0,0,0,0,0,0,0,0,0,0,0,1.6234,1.6233,1.6171,1.6171,1.617,1.6144,1.6144,1.6144,1.6163,1.6164,1.6165,1.6166,1.6132,1.613,1.6128,0,0,0,0,0,0,0,0,0,0,0,0,0,1.6207,1.6233,1.6171,1.6177,1.6177,1.6144,1.6144,1.6143,1.6162,1.6164,1.6165,1.6166,1.6133,1.613,1.6128,1.6086,0,0,1.612,1.6119,0,0,0,0,0,0,0,0,1.6208,1.6204,1.6176,1.6177,1.6177,1.6158,1.6154,1.6124,1.6162,1.6168,1.6165,1.6167,1.6139,1.6136,1.6128,1.6084,1.6083,1.612,1.6118,1.6117,1.6116,0,0,0,0,0,0,0,1.621,1.6206,1.616,1.6176,1.6176,1.6179,1.6177,1.6148,1.6146,1.6167,1.6169,1.6166,1.6139,1.613,1.6127,1.6082,1.612,1.6118,1.6116,1.6115,1.6003,1.6002,0,0,0,0,0,0,1.6212,1.6207,1.6161,1.616,1.6196,1.6177,1.6174,1.6163,1.6147,1.6146,1.6165,1.6167,1.6134,1.613,1.6126,1.6076,1.6117,1.6115,1.6113,1.6005,1.6003,1.6001,0,0,0,0,0,0,1.6214,1.6208,1.6162,1.6184,1.6178,1.6175,1.6161,1.6162,1.6153,1.6145,1.6144,1.6156,1.6135,1.613,1.6096,1.6075,1.6114,1.6111,1.6006,1.6004,1.6002,1.5974,0,0,0,0,0,0,1.6215,1.6208,1.6193,1.6183,1.6177,1.6134,1.616,1.616,1.6149,1.6151,1.6136,1.6135,1.6136,1.61,1.6094,1.6072,1.6109,1.6008,1.6005,1.6003,1.5977,1.5972,1.5967,0,0,0,0,0,1.6218,1.6185,1.6193,1.6187,1.6159,1.6133,1.6129,1.6132,1.6147,1.6131,1.6126,1.6136,1.6079,1.6096,1.6089,1.6067,1.6009,1.6006,1.6003,1.598,1.5973,1.5967,0,0,0,0,0,0,1.619,1.6184,1.6192,1.6156,1.6145,1.6136,1.6116,1.6125,1.6108,1.611,1.6113,1.6109,1.6074,1.6067,1.6087,1.6025,1.6046,1.6041,1.6031,1.6024,1.6019,1.6021,1.6107,0,0,0,0,0,1.6181,1.6162,1.6157,1.6125,1.612,1.6119,1.6108,1.6112,1.61,1.6094,1.6087,1.6073,1.6052,1.6038,1.6019,1.5977,1.5973,1.5958,1.5953,1.5949,1.5944,1.5921,1.5914,1.5991,1.5991,1.5991,0,0,1.6159,1.6154,1.6141,1.612,1.6112,1.6091,1.6115,1.6092,1.6076,1.609,1.6058,1.6053,1.6038,1.6,1.5983,1.5993,1.5922,1.5945,1.5941,1.5939,1.5917,1.591,1.5903,1.5988,1.5989,1.5989,0,0,1.6109,1.6104,1.6077,1.607,1.6058,1.6058,1.6052,1.6042,1.604,1.6009,1.6019,1.6,1.5964,1.5953,1.5942,1.5891,1.5898,1.5884,1.5856,1.5834,1.5828,1.5822,1.5803,1.5796,1.588,1.588,1.588,0,1.6083,1.6054,1.6062,1.6038,1.6028,1.6044,1.6016,1.6007,1.5989,1.5981,1.5993,1.5949,1.594,1.59,1.5888,1.588,1.5871,1.5885,1.5828,1.5823,1.5818,1.5799,1.5792,1.5878,1.5878,1.5878,1.5878,0,1.6023,1.6002,1.5982,1.5967,1.5954,1.5929,1.5931,1.5918,1.5923,1.5921,1.5889,1.5879,1.5858,1.5849,1.5853,1.581,1.5816,1.5829,1.5849,1.5809,1.5791,1.5784,1.5875,1.5876,1.5877,1.5877,0,0,1.5952,1.5944,1.5936,1.5929,1.5919,1.5902,1.5877,1.5859,1.5847,1.5834,1.5812,1.5783,1.5794,1.5783,1.5786,1.5767,1.5725,1.5781,1.5781,1.577,1.5675,1.5665,1.5657,1.5731,1.573,1.5729,1.5676,0,1.5901,1.5859,1.5866,1.5825,1.5806,1.5821,1.5799,1.5789,1.5788,1.577,1.5767,1.5746,1.5764,1.5757,1.5739,1.5734,1.5706,1.5738,1.5708,1.5707,1.571,1.5648,1.5636,1.5587,1.5669,1.5668,1.5667,0,1.5835,1.5823,1.578,1.5774,1.5766,1.5746,1.573,1.5714,1.5703,1.5703,1.5691,1.5698,1.5672,1.5695,1.5658,1.568,1.5668,1.5664,1.5662,1.5658,1.5683,1.5639,1.5571,1.5563,1.5657,1.5658,1.5659,0,1.5786,1.5759,1.573,1.5724,1.5716,1.5702,1.5697,1.5689,1.5677,1.5663,1.5655,1.5638,1.5627,1.5612,1.5614,1.5631,1.5576,1.5599,1.5573,1.5573,1.5558,1.5559,1.5485,1.5555,1.5555,1.5555,1.5555,0,1.5727,1.57,1.5708,1.569,1.566,1.5668,1.5638,1.5635,1.5628,1.5608,1.562,1.5601,1.5606,1.5587,1.5588,1.5556,1.5552,1.555,1.555,1.5547,1.5547,1.5538,1.5541,1.5553,1.5553,1.5554,1.5554,0,1.5666,1.5671,1.564,1.5637,1.5635,1.5613,1.5609,1.5591,1.5592,1.5567,1.5561,1.5561,1.5539,1.5541,1.5515,1.5516,1.5477,1.5482,1.5481,1.5481,1.5454,1.5456,1.5371,1.5359,1.5437,1.5437,1.5436,0,1.5627,1.5607,1.5602,1.5591,1.5586,1.5568,1.5558,1.5565,1.5553,1.5541,1.5524,1.5504,1.5489,1.5453,1.5449,1.543,1.5434,1.5405,1.543,1.5429,1.5431,1.5432,1.5429,1.5399,1.5398,1.5397,1.5397,0,1.5557,1.5561,1.5546,1.5532,1.552,1.5509,1.5499,1.5488,1.5495,1.5481,1.546,1.5448,1.5424,1.5403,1.5386,1.5379,1.5388,1.539,1.5382,1.5378,1.5378,1.5376,1.5465,1.5391,1.5391,1.5392,1.5392,1.5392,1.5504,1.5487,1.5482,1.5465,1.5459,1.545,1.5433,1.5433,1.5416,1.5398,1.5404,1.538,1.537,1.5348,1.534,1.5321,1.533,1.532,1.5317,1.5314,1.531,1.5383,1.5318,1.5318,1.5318,1.5318,1.5318,0,1.5433,1.5431,1.5416,1.5403,1.5389,1.5403,1.5393,1.538,1.536,1.5351,1.5336,1.5312,1.5293,1.5289,1.527,1.5255,1.5259,1.525,1.525,1.5248,1.5303,1.5311,1.5247,1.5247,1.5247,1.5247,1.5247,1.5247,1.5395,1.5367,1.537,1.5339,1.5336,1.5315,1.5308,1.5299,1.5293,1.5266,1.5251,1.525,1.5242,1.5224,1.5206,1.5205,1.5197,1.5186,1.5186,1.5237,1.5244,1.5251,1.5258,1.5184,1.5184,1.5132,1.5132,1.5132]}]]